Siga o Apolo11 no Facebook   Siga o Apolo11 no Twiiter
Ciência, Espaço e Tecnologia




Elementos Keplerianos formato Two Line

Para que um programa de rastreio possa saber a localização exata de qualquer satélite no espaço e assim poder rastreá-lo corretamente, é necessário que ele seja carregado com algumas informações.

Estas informações são chamadas de Elementos Orbitais ou Elementos Keplerianos e consistem em 2 linhas com dezenas de números. Esses números nada mais são que os parâmetros orbitais do satélite, tais como altitude, atitude, excentricidade da órbita, número de órbitas por dia, etc.

Com base nestas informações o programa é capaz de determinar com bastante exatidão a posição de qualquer satélite no espaço e nos informar em qual horário este estará dentro do alcance de nossa estação. Para que isso seja feito com precisão é necessário que os dados estejam sempre bem atualizadas.

Devido aos parâmetros orbitais serem descritos em 2 linhas, estes formato é também conhecido internacionalmente por 2line (leia-se Two Line”).

Para atualizar seu programa de rastreio basta copiar os dados disponibilizados e fornece-los ao programa. Nossos elementos orbitais são atualizados diariamente.

NOAATodos os satélites ambientais da série NOAA
30 DiasSatélites lançados nos últimos 30 dias
ISSSatélites e foguetes relacionados à Estação Espacial Internacional
HAMSatélites construídos por radiomadores
CUBESatélites tipo cubo, com 10 centímetros de lado
METEOSatélites voltados à previsão do tempo
EDUSatélites construídos e operados por universidades
VIS100 satélites mais brilhantes que podem ser vistos a olho nú



Satélites série NOAA
NOAA 1 [-]              
1 04793U 70106A   20195.42057653 -.00000043  00000-0  10254-4 0  9990
2 04793 101.6547 263.0905 0031304 249.0712 122.1039 12.53995117269828
NOAA 2 (ITOS-D) [-]     
1 06235U 72082A   20195.72767159 -.00000022  00000-0  15052-3 0  9997
2 06235 101.8519 165.4319 0004127 350.4807  64.4711 12.53126071183826
NOAA 3 [-]              
1 06920U 73086A   20195.89459852 -.00000053  00000-0 -61001-4 0  9990
2 06920 102.1070 167.1122 0006473 145.0669 243.0204 12.40338546113568
NOAA 4 [-]              
1 07529U 74089A   20195.86474814  .00000018  00000-0  39655-3 0  9990
2 07529 101.8095 165.3893 0009327  16.5642 357.8789 12.53140304 88410
NOAA 5 [-]              
1 09057U 76077A   20195.81369521 -.00000042  00000-0  17274-4 0  9992
2 09057 101.9883 163.4300 0010208   3.3868  32.9889 12.37752874986670
TIROS N [P]             
1 11060U 78096A   20195.86453158 -.00000029  00000-0  70499-5 0  9991
2 11060  98.7372 253.3463 0010711  12.5789 347.5652 14.18271933371871
NOAA 6 [P]              
1 11416U 79057A   20195.76002543  .00000011  00000-0  20260-4 0  9991
2 11416  98.6562 194.6371 0010484 167.7751 192.3690 14.33584869140908
NOAA 7 [-]              
1 12553U 81059A   20195.81197374 -.00000016  00000-0  15247-4 0  9997
2 12553  99.0810 216.9799 0010777 317.9871  42.0476 14.17277563 18124
NOAA 8 [-]              
1 13923U 83022A   20195.68103004 -.00000004  00000-0  15700-4 0  9994
2 13923  98.6196 180.6025 0016302 108.0621 252.2338 14.28705638941914
NOAA 9 [P]              
1 15427U 84123A   20195.80021755 -.00000020  00000-0  12983-4 0  9992
2 15427  98.9429 150.2106 0015062   6.8106   4.6545 14.16101474837025
NOAA 10 [-]             
1 16969U 86073A   20195.55746094 -.00000007  00000-0  14410-4 0  9994
2 16969  98.5029 186.4104 0011395 213.2849 255.3103 14.28101057760368
NOAA 11 [-]             
1 19531U 88089A   20195.76071954 -.00000041  00000-0 -48510-6 0  9999
2 19531  98.4116 213.6942 0012125  51.7609 308.4655 14.15257186641288
NOAA 12 [-]             
1 21263U 91032A   20195.69869535 -.00000032  00000-0  45671-5 0  9991
2 21263  98.5047 204.8908 0012550 235.9842 124.0147 14.25917193516436
NOAA 13 [-]             
1 22739U 93050A   20195.76103639 -.00000018  00000-0  12418-4 0  9992
2 22739  98.4556 202.1408 0009097 193.0500 167.0439 14.12757898387697
NOAA 14 [-]             
1 23455U 94089A   20195.84604557 -.00000048  00000-0 -35453-5 0  9994
2 23455  98.5413 246.1852 0009481 177.6350 182.4870 14.14146225317269
NOAA 15 [B]             
1 25338U 98030A   20195.88719878  .00000065  00000-0  45870-4 0  9993
2 25338  98.7152 220.8018 0010410 179.5198 180.5993 14.25978725152746
NOAA 16 [-]             
1 26536U 00055A   20195.88879324 -.00000030  00000-0  70699-5 0  9998
2 26536  98.7317 264.3366 0010749  17.8636 342.2912 14.13254776317971
NOAA 17 [-]             
1 27453U 02032A   20195.84437370 -.00000010  00000-0  14295-4 0  9998
2 27453  98.5850 141.8010 0012075 155.0883 205.0882 14.25068721938649
NOAA 18 [B]             
1 28654U 05018A   20195.79687210  .00000073  00000-0  64138-4 0  9992
2 28654  99.0419 252.4699 0014863 153.4534 206.7401 14.12524669780637
NOAA 19 [+]             
1 33591U 09005A   20195.80257243  .00000077  00000-0  67354-4 0  9996
2 33591  99.1948 201.8354 0014073   6.5856 353.5497 14.12420966588856
SUOMI NPP [+]           
1 37849U 11061A   20195.82657154 -.00000020  00000-0  11514-4 0  9994
2 37849  98.7371 133.3969 0001217 106.2706 276.6387 14.19539102451379
NOAA 20 [+]             
1 43013U 17073A   20195.85759872 -.00000012  00000-0  14959-4 0  9993
2 43013  98.7183 133.3965 0000771  82.6555 277.4708 14.19557434137408


IMAGENS DE SATÉLITES !    Clique e conheça nosso Vídeo Workshop de sensoriamento remoto e imagens meteorológicas.
Apolo11.com - Todos os direitos reservados - 2001 - 2020
Política de Privacidade

"O diabo é um otimista se pensa que pode fazer as pessoas piores do que são. " - Karl Kraus